DLHC1N EDDS-EDDG

Flight info

Callsign DLHC1N
Flight time 0h 50m
Altitude 24000
Route TAGIK2H TAGIK Z3 ABUMO N850 GISEM Z505 ARPEG Z850 BADGO/N0333F100 Z850 HMM HMM1A
Aircraft A20N/M-SDE2E3FGHIRWXY/LB1

Departure

Time 2026-05-08 19:28
Airport Stuttgart Airport (EDDS)

Arrival

Time 2026-05-08 20:18
Airport Münster Osnabrück Airport (EDDG)
Time Latitude Longitude Altitude Speed Heading
2026-05-08 19:06 48.68968 9.19778 1266 ft 0 kts 343°
2026-05-08 19:17 48.68955 9.19784 1293 ft 2 kts 342°
2026-05-08 19:17 48.68945 9.19789 1293 ft 2 kts 343°
2026-05-08 19:17 48.68932 9.19795 1293 ft 2 kts 344°
2026-05-08 19:18 48.68916 9.19801 1293 ft 2 kts
2026-05-08 19:18 48.68901 9.19798 1293 ft 2 kts 24°
2026-05-08 19:18 48.68888 9.19785 1294 ft 2 kts 60°
2026-05-08 19:18 48.68883 9.19771 1294 ft 2 kts 72°
2026-05-08 19:19 48.68883 9.19770 1294 ft 0 kts 72°
2026-05-08 19:21 48.68884 9.19778 1294 ft 3 kts 73°
2026-05-08 19:22 48.68890 9.19835 1293 ft 7 kts 90°
2026-05-08 19:22 48.68850 9.19896 1292 ft 11 kts 160°
2026-05-08 19:22 48.68788 9.19940 1291 ft 9 kts 160°
2026-05-08 19:22 48.68740 9.19961 1291 ft 0 kts 161°
2026-05-08 19:24 48.68721 9.19970 1291 ft 6 kts 162°
2026-05-08 19:24 48.68696 9.19982 1291 ft 0 kts 162°
2026-05-08 19:26 48.68684 9.19987 1290 ft 4 kts 163°
2026-05-08 19:26 48.68638 9.20008 1289 ft 10 kts 162°
2026-05-08 19:26 48.68594 9.20101 1287 ft 13 kts 88°
2026-05-08 19:26 48.68609 9.20200 1287 ft 0 kts 74°
2026-05-08 19:27 48.68612 9.20215 1285 ft 4 kts 74°
2026-05-08 19:27 48.68627 9.20295 1285 ft 18 kts 73°
2026-05-08 19:27 48.68737 9.20872 1269 ft 92 kts 74°
2026-05-08 19:27 48.68970 9.22091 1242 ft 145 kts 73°
2026-05-08 19:28 48.69279 9.23682 1567 ft 159 kts 72°
2026-05-08 19:28 48.69587 9.25317 2107 ft 165 kts 72°
2026-05-08 19:28 48.69920 9.27004 2698 ft 170 kts 72°
2026-05-08 19:28 48.70278 9.28773 3091 ft 185 kts 75°
2026-05-08 19:29 48.70629 9.30781 3359 ft 209 kts 76°
2026-05-08 19:29 48.71021 9.33019 3779 ft 232 kts 75°
2026-05-08 19:29 48.71483 9.35489 4297 ft 254 kts 75°
2026-05-08 19:29 48.71994 9.38116 5179 ft 264 kts 75°
2026-05-08 19:30 48.72562 9.40773 6136 ft 273 kts 66°
2026-05-08 19:30 48.73740 9.43125 7080 ft 283 kts 37°
2026-05-08 19:30 48.75512 9.44259 8077 ft 284 kts
2026-05-08 19:30 48.77455 9.44007 9117 ft 283 kts 340°
2026-05-08 19:31 48.79325 9.42910 10036 ft 288 kts 333°
2026-05-08 19:31 48.81153 9.41598 10888 ft 298 kts 331°
2026-05-08 19:31 48.83089 9.40132 11260 ft 323 kts 331°
2026-05-08 19:31 48.85160 9.38559 11777 ft 340 kts 331°
2026-05-08 19:32 48.87300 9.36957 12646 ft 346 kts 332°
2026-05-08 19:32 48.89402 9.35143 13489 ft 349 kts 320°
2026-05-08 19:32 48.91016 9.32388 14271 ft 351 kts 298°
2026-05-08 19:32 48.91864 9.28930 15104 ft 350 kts 279°
2026-05-08 19:33 48.92264 9.25310 15908 ft 354 kts 278°
2026-05-08 19:33 48.92658 9.21543 16728 ft 358 kts 277°
2026-05-08 19:33 48.93044 9.17843 17523 ft 361 kts 277°
2026-05-08 19:33 48.93441 9.14059 18322 ft 365 kts 278°
2026-05-08 19:34 48.93847 9.10223 19005 ft 368 kts 278°
2026-05-08 19:34 48.94258 9.06360 19696 ft 372 kts 278°
2026-05-08 19:34 48.94783 9.02481 20373 ft 376 kts 287°
2026-05-08 19:34 48.95936 8.98885 21034 ft 383 kts 303°
2026-05-08 19:35 48.97756 8.95882 21677 ft 391 kts 320°
2026-05-08 19:35 49.00114 8.93765 22312 ft 399 kts 336°
2026-05-08 19:35 49.02823 8.92720 22954 ft 406 kts 352°
2026-05-08 19:35 49.05676 8.92756 23588 ft 413 kts
2026-05-08 19:36 49.08548 8.93195 23951 ft 417 kts
2026-05-08 19:36 49.11439 8.93704 24063 ft 418 kts
2026-05-08 19:36 49.14324 8.94189 24076 ft 417 kts
2026-05-08 19:36 49.17183 8.94631 24075 ft 417 kts
2026-05-08 19:37 49.20070 8.95050 24078 ft 417 kts
2026-05-08 19:37 49.22963 8.95457 24086 ft 417 kts
2026-05-08 19:37 49.25859 8.95862 24079 ft 417 kts
2026-05-08 19:37 49.28743 8.96264 24095 ft 416 kts
2026-05-08 19:38 49.31632 8.96668 24087 ft 416 kts
2026-05-08 19:38 49.34492 8.97068 24092 ft 416 kts
2026-05-08 19:38 49.37388 8.97474 24088 ft 416 kts
2026-05-08 19:38 49.40267 8.97878 24090 ft 416 kts
2026-05-08 19:39 49.43161 8.98284 24092 ft 416 kts
2026-05-08 19:39 49.46049 8.98691 24092 ft 416 kts
2026-05-08 19:39 49.48936 8.99095 24095 ft 416 kts
2026-05-08 19:39 49.51784 8.99495 24098 ft 416 kts
2026-05-08 19:40 49.54668 8.99896 24099 ft 416 kts
2026-05-08 19:40 49.57553 9.00294 24102 ft 416 kts
2026-05-08 19:40 49.60445 9.00692 24100 ft 416 kts
2026-05-08 19:40 49.63322 9.01089 24103 ft 416 kts
2026-05-08 19:41 49.66204 9.01499 24104 ft 416 kts
2026-05-08 19:41 49.69093 9.01915 24104 ft 415 kts
2026-05-08 19:41 49.71972 9.02331 24101 ft 415 kts
2026-05-08 19:41 49.74842 9.02746 24105 ft 415 kts
2026-05-08 19:42 49.77719 9.03161 24107 ft 415 kts
2026-05-08 19:42 49.80569 9.03573 24106 ft 415 kts
2026-05-08 19:42 49.83444 9.03988 24107 ft 415 kts
2026-05-08 19:42 49.86285 9.04399 24108 ft 415 kts
2026-05-08 19:43 49.89204 9.04794 24108 ft 414 kts
2026-05-08 19:43 49.92071 9.04627 24107 ft 412 kts 351°
2026-05-08 19:43 49.94872 9.03718 24109 ft 410 kts 341°
2026-05-08 19:43 49.97542 9.02203 24108 ft 409 kts 337°
2026-05-08 19:44 50.00197 9.00620 24107 ft 409 kts 337°
2026-05-08 19:44 50.02859 8.99047 24106 ft 408 kts 337°
2026-05-08 19:44 50.05515 8.97478 24109 ft 408 kts 337°
2026-05-08 19:44 50.08172 8.95903 24110 ft 408 kts 337°
2026-05-08 19:45 50.10832 8.94322 24110 ft 408 kts 337°
2026-05-08 19:45 50.13481 8.92861 24108 ft 410 kts 342°
2026-05-08 19:45 50.16268 8.91893 24109 ft 411 kts 349°
2026-05-08 19:45 50.19117 8.91310 24111 ft 411 kts 351°
2026-05-08 19:46 50.21952 8.90715 24107 ft 412 kts 350°
2026-05-08 19:46 50.24799 8.90107 24115 ft 412 kts 350°
2026-05-08 19:46 50.30469 8.88903 24115 ft 411 kts 350°
2026-05-08 19:47 50.33306 8.88309 24118 ft 412 kts 350°
2026-05-08 19:47 50.36152 8.87714 24120 ft 411 kts 350°
2026-05-08 19:47 50.38988 8.87121 24122 ft 411 kts 350°
2026-05-08 19:47 50.41827 8.86526 24121 ft 411 kts 350°
2026-05-08 19:48 50.44667 8.85929 24123 ft 412 kts 350°
2026-05-08 19:48 50.47507 8.85332 24125 ft 412 kts 350°
2026-05-08 19:48 50.50348 8.84734 24123 ft 412 kts 350°
2026-05-08 19:48 50.53148 8.84143 24126 ft 411 kts 350°
2026-05-08 19:49 50.56031 8.83535 24127 ft 412 kts 350°
2026-05-08 19:49 50.58831 8.82943 24127 ft 411 kts 350°
2026-05-08 19:49 50.61633 8.82102 24130 ft 409 kts 341°
2026-05-08 19:49 50.64254 8.80407 24130 ft 406 kts 329°
2026-05-08 19:50 50.66589 8.77915 24131 ft 404 kts 318°
2026-05-08 19:50 50.68700 8.75075 24129 ft 404 kts 318°
2026-05-08 19:50 50.70847 8.72204 24130 ft 404 kts 318°
2026-05-08 19:50 50.72999 8.69331 24132 ft 404 kts 318°
2026-05-08 19:51 50.75142 8.66464 24137 ft 404 kts 318°
2026-05-08 19:51 50.77286 8.63593 24134 ft 404 kts 318°
2026-05-08 19:51 50.79428 8.60716 24136 ft 404 kts 318°
2026-05-08 19:51 50.81573 8.57832 24134 ft 404 kts 318°
2026-05-08 19:52 50.83713 8.54950 24135 ft 404 kts 318°
2026-05-08 19:52 50.85851 8.52067 24138 ft 404 kts 318°
2026-05-08 19:52 50.87987 8.49184 24136 ft 404 kts 318°
2026-05-08 19:52 50.90137 8.46278 24137 ft 404 kts 318°
2026-05-08 19:53 50.92247 8.43423 24138 ft 404 kts 318°
2026-05-08 19:53 50.94386 8.40525 24139 ft 404 kts 318°
2026-05-08 19:53 50.96519 8.37631 24135 ft 404 kts 318°
2026-05-08 19:53 50.98663 8.34718 24139 ft 404 kts 318°
2026-05-08 19:54 51.00809 8.31841 24135 ft 404 kts 321°
2026-05-08 19:54 51.03136 8.29321 24141 ft 405 kts 328°
2026-05-08 19:54 51.05610 8.27135 24136 ft 406 kts 329°
2026-05-08 19:54 51.08077 8.24945 24136 ft 406 kts 329°
2026-05-08 19:55 51.10534 8.22749 24139 ft 405 kts 329°
2026-05-08 19:55 51.12995 8.20551 24140 ft 405 kts 329°
2026-05-08 19:55 51.15447 8.18362 24139 ft 405 kts 329°
2026-05-08 19:55 51.17878 8.16192 24142 ft 405 kts 329°
2026-05-08 19:56 51.20342 8.13990 24136 ft 405 kts 329°
2026-05-08 19:56 51.22803 8.11789 24140 ft 405 kts 329°
2026-05-08 19:56 51.25262 8.09586 24136 ft 405 kts 329°
2026-05-08 19:56 51.27719 8.07382 24138 ft 405 kts 329°
2026-05-08 19:57 51.30175 8.05177 24137 ft 405 kts 329°
2026-05-08 19:57 51.32614 8.02984 23993 ft 402 kts 329°
2026-05-08 19:57 51.35049 8.00792 23554 ft 400 kts 329°
2026-05-08 19:57 51.37462 7.98617 22945 ft 397 kts 329°
2026-05-08 19:58 51.39861 7.96451 22304 ft 394 kts 329°
2026-05-08 19:58 51.42239 7.94303 21670 ft 391 kts 329°
2026-05-08 19:58 51.44601 7.92176 21052 ft 387 kts 329°
2026-05-08 19:58 51.46948 7.90080 20445 ft 385 kts 332°
2026-05-08 19:59 51.49380 7.88390 20080 ft 376 kts 340°
2026-05-08 19:59 51.51812 7.87206 19944 ft 360 kts 342°
2026-05-08 19:59 51.54158 7.86092 19633 ft 344 kts 342°
2026-05-08 19:59 51.56445 7.84984 19107 ft 342 kts 342°
2026-05-08 20:00 51.58714 7.83882 18674 ft 339 kts 342°
2026-05-08 20:00 51.60970 7.82789 18203 ft 338 kts 342°
2026-05-08 20:00 51.63210 7.81707 17747 ft 335 kts 342°
2026-05-08 20:00 51.65439 7.80633 17240 ft 333 kts 342°
2026-05-08 20:01 51.67657 7.79563 16703 ft 333 kts 342°
2026-05-08 20:01 51.69880 7.78490 16169 ft 332 kts 342°
2026-05-08 20:01 51.72070 7.77433 15630 ft 324 kts 342°
2026-05-08 20:01 51.74180 7.76414 15115 ft 317 kts 342°
2026-05-08 20:02 51.76272 7.75402 14677 ft 309 kts 342°
2026-05-08 20:02 51.78283 7.74429 14478 ft 292 kts 342°
2026-05-08 20:02 51.80184 7.73509 14221 ft 281 kts 342°
2026-05-08 20:02 51.82065 7.72595 13703 ft 282 kts 342°
2026-05-08 20:03 51.83933 7.71648 13153 ft 280 kts 336°
2026-05-08 20:03 51.85499 7.69882 12598 ft 274 kts 309°
2026-05-08 20:03 51.86397 7.67213 12075 ft 273 kts 286°
2026-05-08 20:03 51.86771 7.65229 11712 ft 272 kts 286°
2026-05-08 20:04 51.87309 7.62336 11188 ft 271 kts 286°
2026-05-08 20:04 51.87852 7.59423 10681 ft 270 kts 286°
2026-05-08 20:04 51.88394 7.56529 10175 ft 268 kts 286°
2026-05-08 20:04 51.88928 7.53688 9854 ft 257 kts 286°
2026-05-08 20:05 51.89444 7.50945 9445 ft 255 kts 286°
2026-05-08 20:05 51.89961 7.48193 8917 ft 255 kts 286°
2026-05-08 20:05 51.90475 7.45453 8402 ft 254 kts 286°
2026-05-08 20:05 51.90986 7.42726 7894 ft 252 kts 286°
2026-05-08 20:06 51.91492 7.40022 7392 ft 250 kts 286°
2026-05-08 20:06 51.91995 7.37333 6894 ft 249 kts 286°
2026-05-08 20:06 51.92494 7.34653 6367 ft 249 kts 286°
2026-05-08 20:06 51.92995 7.31965 5811 ft 248 kts 287°
2026-05-08 20:07 51.93491 7.29291 5353 ft 245 kts 287°
2026-05-08 20:07 51.93969 7.26717 5125 ft 233 kts 287°
2026-05-08 20:07 51.94437 7.24200 5012 ft 236 kts 287°
2026-05-08 20:07 51.94904 7.21686 4991 ft 236 kts 287°
2026-05-08 20:08 51.95373 7.19154 4988 ft 233 kts 287°
2026-05-08 20:08 51.95862 7.16643 4991 ft 234 kts 294°
2026-05-08 20:08 51.96863 7.14609 4993 ft 233 kts 326°
2026-05-08 20:08 51.98371 7.13737 4993 ft 233 kts 358°
2026-05-08 20:09 51.99933 7.14291 4993 ft 233 kts 30°
2026-05-08 20:09 52.01244 7.15848 4995 ft 234 kts 39°
2026-05-08 20:09 52.02393 7.17663 4993 ft 233 kts 54°
2026-05-08 20:09 52.03159 7.19980 4996 ft 231 kts 68°
2026-05-08 20:10 52.03686 7.22358 4992 ft 215 kts 71°
2026-05-08 20:10 52.04138 7.24547 4991 ft 199 kts 70°
2026-05-08 20:10 52.04569 7.26569 4995 ft 180 kts 70°
2026-05-08 20:10 52.04957 7.28394 4989 ft 161 kts 70°
2026-05-08 20:11 52.05312 7.30060 4877 ft 151 kts 70°
2026-05-08 20:11 52.05652 7.31656 4682 ft 147 kts 70°
2026-05-08 20:11 52.05982 7.33210 4485 ft 144 kts 71°
2026-05-08 20:11 52.06313 7.34767 4309 ft 147 kts 71°
2026-05-08 20:12 52.06644 7.36324 4107 ft 144 kts 71°
2026-05-08 20:12 52.06968 7.37849 3921 ft 142 kts 71°
2026-05-08 20:12 52.07289 7.39361 3729 ft 142 kts 71°
2026-05-08 20:12 52.07612 7.40882 3547 ft 142 kts 72°
2026-05-08 20:13 52.07932 7.42392 3360 ft 141 kts 72°
2026-05-08 20:13 52.08253 7.43902 3174 ft 140 kts 72°
2026-05-08 20:13 52.08569 7.45390 2982 ft 139 kts 72°
2026-05-08 20:13 52.08884 7.46876 2794 ft 139 kts 72°
2026-05-08 20:14 52.09199 7.48361 2596 ft 139 kts 72°
2026-05-08 20:14 52.09513 7.49840 2409 ft 138 kts 73°
2026-05-08 20:14 52.09824 7.51310 2215 ft 137 kts 73°
2026-05-08 20:14 52.10131 7.52757 2039 ft 137 kts 73°
2026-05-08 20:15 52.10431 7.54168 1860 ft 126 kts 73°
2026-05-08 20:15 52.10714 7.55506 1687 ft 126 kts 73°
2026-05-08 20:15 52.10999 7.56847 1508 ft 124 kts 73°
2026-05-08 20:15 52.11278 7.58166 1341 ft 123 kts 73°
2026-05-08 20:16 52.11559 7.59495 1171 ft 125 kts 73°
2026-05-08 20:16 52.11844 7.60841 994 ft 127 kts 73°
2026-05-08 20:16 52.12115 7.62186 829 ft 121 kts 72°
2026-05-08 20:16 52.12398 7.63478 617 ft 122 kts 71°
2026-05-08 20:17 52.12674 7.64786 441 ft 123 kts 71°
2026-05-08 20:17 52.12962 7.66105 272 ft 124 kts 69°
2026-05-08 20:17 52.13243 7.67407 164 ft 117 kts 70°
2026-05-08 20:17 52.13416 7.68245 167 ft 58 kts 72°
2026-05-08 20:18 52.13537 7.68828 166 ft 50 kts 71°
2026-05-08 20:18 52.13672 7.69292 169 ft 38 kts 84°
2026-05-08 20:18 52.13709 7.69632 168 ft 29 kts 71°
2026-05-08 20:18 52.13766 7.69917 167 ft 16 kts 79°
2026-05-08 20:19 52.13690 7.70033 168 ft 17 kts 171°
2026-05-08 20:19 52.13639 7.70016 168 ft 4 kts 204°
2026-05-08 20:19 52.13617 7.69987 168 ft 6 kts 227°
2026-05-08 20:19 52.13592 7.69908 168 ft 10 kts 251°
2026-05-08 20:20 52.13565 7.69778 168 ft 14 kts 251°
2026-05-08 20:20 52.13528 7.69607 167 ft 18 kts 251°
2026-05-08 20:20 52.13488 7.69418 167 ft 17 kts 250°
2026-05-08 20:20 52.13447 7.69253 167 ft 15 kts 228°
2026-05-08 20:21 52.13362 7.69259 167 ft 14 kts 159°
2026-05-08 20:21 52.13264 7.69315 167 ft 14 kts 163°
2026-05-08 20:21 52.13218 7.69276 167 ft 6 kts 248°
2026-05-08 20:21 52.13211 7.69246 167 ft 0 kts 249°
2026-05-08 20:22 52.13204 7.69240 167 ft 1 kts 208°
2026-05-08 20:22 52.13172 7.69230 167 ft 9 kts 187°
2026-05-08 20:22 52.13138 7.69223 167 ft 0 kts 187°
2026-05-08 20:23 52.13135 7.69222 167 ft 0 kts 187°
2026-05-08 20:23 52.13134 7.69222 167 ft 0 kts 187°